[[{"header":{"parameterUnit":"m.s-1","parameterCategory":1,"la1":30.2991,"la2":30.254,"lo1":-89.0895,"lo2":-89.0444,"dy":0.0017,"dx":0.0017,"nx":28,"ny":28,"refTime":"2023-07-24T03:00:00:Z","depth":0,"parameterNumber":2,"parameterNumberName":"U-component_of_WINDS"},"data":[0,0,0,0,0,0,0,0,0,0,0,0,0,0,0,0,0,0,0,0,0,0,0,0,0,0,0,0,0,0,0,0,0,0,0,0,0,0,0,0,0,0,0,0,0,0,0,0,0,0,0,0,0,0,0,0,0,0,0.6819,0.682,0,0.6919,0.692,0.6921,0.6968,0.6968,0.6967,0.6967,0.707,0.7073,0.7075,0,0,0,0,0,0,0,0,0,0,0,0,0,0.6666,0.6669,0.6819,0.682,0.6821,0.6919,0.692,0.6922,0.6968,0.6968,0.6967,0.6967,0.7069,0.7072,0.7076,0,0,0,0,0,0,0,0,0,0,0,0,0,0.6746,0.667,0.6819,0.6856,0.6861,0.6919,0.692,0.6922,0.6968,0.6968,0.6967,0.6967,0.7068,0.7072,0.7076,0.7104,0,0,0.7089,0.7091,0,0,0,0,0,0,0,0,0.6742,0.6752,0.6849,0.6854,0.6859,0.6931,0.6904,0.6983,0.6968,0.6927,0.6967,0.6967,0.7024,0.7031,0.7051,0.7109,0.7114,0.7089,0.7092,0.7094,0.7095,0,0,0,0,0,0,0,0.6736,0.6748,0.6859,0.6851,0.6856,0.6868,0.6879,0.6919,0.6975,0.6931,0.6934,0.6945,0.7026,0.7046,0.7053,0.7115,0.7089,0.7093,0.7095,0.7097,0.7201,0.7202,0,0,0,0,0,0,0.6725,0.6743,0.6855,0.6862,0.6799,0.687,0.6883,0.6908,0.6974,0.6985,0.6945,0.6947,0.7039,0.7048,0.7057,0.7094,0.7094,0.7098,0.71,0.7201,0.7201,0.7202,0,0,0,0,0,0,0.6721,0.6734,0.6851,0.6803,0.6819,0.6873,0.6901,0.691,0.693,0.6986,0.6996,0.6956,0.704,0.7051,0.7092,0.7099,0.7099,0.7103,0.7201,0.7201,0.7202,0.7169,0,0,0,0,0,0,0.6716,0.6733,0.6744,0.6803,0.6821,0.6885,0.6901,0.6912,0.6937,0.694,0.6998,0.7008,0.704,0.7086,0.7096,0.7104,0.7107,0.7201,0.7201,0.7201,0.717,0.7169,0.7167,0,0,0,0,0,0.6711,0.6731,0.6745,0.6758,0.6837,0.6885,0.6896,0.6933,0.6938,0.695,0.6985,0.7006,0.7096,0.7089,0.7102,0.7111,0.72,0.7201,0.7201,0.7171,0.7169,0.7167,0,0,0,0,0,0,0.6672,0.674,0.6755,0.6796,0.6834,0.6893,0.6909,0.693,0.6968,0.697,0.7014,0.7027,0.7063,0.7092,0.7083,0.7142,0.715,0.7153,0.7122,0.7121,0.712,0.7112,0.711,0,0,0,0,0,0.6668,0.6702,0.6759,0.6789,0.6808,0.6855,0.6877,0.6902,0.6944,0.6961,0.7,0.7039,0.7077,0.71,0.7138,0.7174,0.7187,0.7187,0.7185,0.7184,0.7186,0.7207,0.7207,0.7204,0.7204,0.7203,0,0,0.666,0.6702,0.672,0.6782,0.6815,0.6849,0.6868,0.6903,0.6929,0.6966,0.7008,0.7037,0.7084,0.7123,0.7142,0.7147,0.719,0.7184,0.7183,0.7186,0.7207,0.7208,0.7208,0.7204,0.7204,0.7204,0,0,0.6664,0.6698,0.6727,0.6759,0.6809,0.684,0.6847,0.6902,0.6923,0.6965,0.6994,0.7024,0.7088,0.712,0.7145,0.7159,0.7179,0.7169,0.7162,0.7182,0.7182,0.7183,0.7188,0.7189,0.7171,0.7171,0.7171,0,0.6648,0.67,0.6739,0.6772,0.6798,0.6833,0.6862,0.6892,0.6951,0.6968,0.6973,0.7053,0.7087,0.7134,0.7137,0.7156,0.7164,0.7164,0.7179,0.718,0.7181,0.7186,0.7188,0.717,0.717,0.717,0.717,0,0.6678,0.6713,0.673,0.6787,0.6815,0.6845,0.6888,0.6912,0.6934,0.6964,0.7006,0.7048,0.7094,0.7107,0.7129,0.7156,0.7158,0.7171,0.718,0.7179,0.7185,0.7187,0.7168,0.7168,0.7169,0.7169,0,0,0.6661,0.6737,0.6743,0.6768,0.6825,0.6853,0.6885,0.693,0.6949,0.6988,0.7016,0.7068,0.708,0.7108,0.7134,0.7151,0.7159,0.7161,0.7163,0.7159,0.7191,0.7181,0.7183,0.7172,0.7173,0.7173,0.7187,0,0.6672,0.6731,0.6766,0.6811,0.6844,0.6877,0.6905,0.6942,0.6971,0.7003,0.7035,0.7071,0.7084,0.7101,0.7119,0.7154,0.7166,0.7153,0.7198,0.7199,0.7186,0.7186,0.7176,0.7187,0.7189,0.719,0.719,0,0.6693,0.6731,0.6779,0.6832,0.6847,0.6871,0.6915,0.6945,0.6988,0.7007,0.7038,0.7064,0.7098,0.7104,0.7152,0.7142,0.7163,0.7182,0.7184,0.719,0.7195,0.7192,0.7192,0.7193,0.7194,0.7193,0.7193,0,0.6676,0.6739,0.6776,0.6797,0.6859,0.6875,0.6901,0.6944,0.6968,0.7006,0.7023,0.7064,0.7087,0.7118,0.7154,0.7155,0.7198,0.7207,0.7216,0.7215,0.7224,0.7223,0.7227,0.7236,0.7236,0.7236,0.7236,0,0.6685,0.6713,0.6769,0.6791,0.6823,0.6863,0.6894,0.6923,0.696,0.6989,0.702,0.7046,0.7092,0.7123,0.7152,0.7187,0.7197,0.7213,0.7221,0.7211,0.7209,0.7225,0.7226,0.7237,0.7236,0.7236,0.7236,0,0.6671,0.671,0.6752,0.6807,0.6821,0.6842,0.6889,0.6912,0.6942,0.6977,0.6988,0.7035,0.7074,0.7113,0.7165,0.7184,0.7218,0.7228,0.7204,0.7208,0.7214,0.7213,0.7229,0.7233,0.7239,0.7239,0.7239,0,0.6675,0.6697,0.6754,0.6775,0.6801,0.6835,0.686,0.6899,0.6924,0.6974,0.6991,0.7031,0.7066,0.7126,0.7165,0.7205,0.7216,0.7219,0.7222,0.7211,0.7216,0.7214,0.7217,0.7217,0.7217,0.7217,0.7217,0,0.6677,0.6694,0.673,0.6771,0.68,0.6835,0.687,0.6886,0.6932,0.6958,0.6998,0.7025,0.7077,0.7118,0.7162,0.7189,0.721,0.7215,0.7219,0.721,0.7195,0.7203,0.72,0.7215,0.7215,0.7215,0.7215,0.7215,0.6672,0.6693,0.6736,0.6774,0.6805,0.6837,0.6861,0.6894,0.6928,0.6974,0.6995,0.7035,0.7076,0.7137,0.7164,0.7195,0.7201,0.7207,0.7209,0.721,0.7207,0.7189,0.7203,0.7204,0.7204,0.7204,0.7204,0,0.6676,0.6705,0.6739,0.6788,0.6817,0.6835,0.6875,0.6898,0.6933,0.697,0.7003,0.7048,0.7087,0.7128,0.7169,0.7186,0.7197,0.7196,0.7195,0.7201,0.72,0.7192,0.7186,0.7186,0.7186,0.7186,0.7186,0.7186,0.6681,0.6718,0.674,0.6792,0.6821,0.686,0.6882,0.6911,0.6941,0.699,0.7022,0.7048,0.7087,0.7131,0.7167,0.7178,0.7192,0.7187,0.7201,0.72,0.7201,0.7202,0.7195,0.719,0.719,0.72,0.72,0.72]},{"header":{"parameterUnit":"m.s-1","parameterCategory":1,"la1":30.2991,"la2":30.254,"lo1":-89.0895,"lo2":-89.0444,"dy":0.0017,"dx":0.0017,"nx":28,"ny":28,"refTime":"2023-07-24T03:00:00:Z","depth":0,"parameterNumber":3,"parameterNumberName":"V-component_of_WINDS"},"data":[0,0,0,0,0,0,0,0,0,0,0,0,0,0,0,0,0,0,0,0,0,0,0,0,0,0,0,0,0,0,0,0,0,0,0,0,0,0,0,0,0,0,0,0,0,0,0,0,0,0,0,0,0,0,0,0,0,0,2.9114,2.9114,0,2.906,2.9059,2.9058,2.9045,2.9045,2.9046,2.9046,2.8984,2.8983,2.8981,0,0,0,0,0,0,0,0,0,0,0,0,0,2.9202,2.92,2.9114,2.9114,2.9113,2.906,2.9059,2.9058,2.9045,2.9045,2.9046,2.9046,2.8985,2.8983,2.898,0,0,0,0,0,0,0,0,0,0,0,0,0,2.9157,2.92,2.9114,2.91,2.9098,2.906,2.9059,2.9058,2.9045,2.9045,2.9046,2.9046,2.8986,2.8983,2.898,2.8951,0,0,2.8971,2.897,0,0,0,0,0,0,0,0,2.9159,2.9154,2.9103,2.9101,2.9099,2.906,2.9067,2.9022,2.9045,2.9065,2.9046,2.9047,2.9009,2.9004,2.8992,2.8948,2.8945,2.8971,2.8969,2.8968,2.8967,0,0,0,0,0,0,0,2.9163,2.9156,2.9092,2.9102,2.91,2.9094,2.9089,2.9059,2.9034,2.9063,2.9062,2.9056,2.9008,2.8995,2.8991,2.8944,2.8971,2.8968,2.8966,2.8965,2.8872,2.8871,0,0,0,0,0,0,2.9169,2.9159,2.9094,2.9091,2.9131,2.9092,2.9086,2.9072,2.9034,2.9029,2.9056,2.9056,2.9,2.8994,2.8988,2.8951,2.8968,2.8965,2.8963,2.8873,2.8872,2.8871,0,0,0,0,0,0,2.9171,2.9163,2.9096,2.9124,2.9116,2.909,2.9074,2.907,2.9058,2.9029,2.9024,2.9048,2.9,2.8993,2.896,2.8949,2.8964,2.8961,2.8873,2.8872,2.8871,2.8876,0,0,0,0,0,0,2.9173,2.9164,2.9154,2.9124,2.9114,2.9071,2.9074,2.9069,2.9053,2.9053,2.902,2.9015,2.9,2.8965,2.8957,2.8945,2.8958,2.8874,2.8873,2.8872,2.8877,2.8876,2.8874,0,0,0,0,0,2.9177,2.9156,2.9154,2.9146,2.9101,2.907,2.9064,2.9049,2.9053,2.9041,2.9023,2.9016,2.8952,2.8962,2.8953,2.894,2.8875,2.8873,2.8872,2.8878,2.8876,2.8874,0,0,0,0,0,0,2.9183,2.9152,2.9149,2.9119,2.9098,2.9068,2.9053,2.9047,2.9023,2.9023,2.9004,2.8996,2.8965,2.8949,2.8961,2.8909,2.8913,2.891,2.892,2.8918,2.8917,2.8921,2.8956,0,0,0,0,0,2.9182,2.9161,2.9134,2.911,2.91,2.9079,2.9064,2.9055,2.9031,2.9021,2.9,2.8976,2.895,2.8934,2.8908,2.8875,2.8867,2.8861,2.886,2.8859,2.8856,2.8836,2.8833,2.8866,2.8866,2.8866,0,0,2.9177,2.9158,2.9145,2.9111,2.9093,2.9071,2.9071,2.9047,2.9029,2.9017,2.8986,2.897,2.8941,2.8908,2.8892,2.8894,2.8845,2.8857,2.8856,2.8854,2.8834,2.8831,2.8828,2.8865,2.8865,2.8865,0,0,2.9157,2.9141,2.9119,2.9102,2.9076,2.9062,2.9057,2.9029,2.9018,2.8987,2.8977,2.8955,2.8911,2.8891,2.8875,2.8848,2.8841,2.884,2.8833,2.8814,2.8811,2.8809,2.8798,2.8795,2.8838,2.8838,2.8838,0,2.9154,2.9122,2.9108,2.9085,2.9069,2.906,2.9036,2.9019,2.8986,2.8974,2.8977,2.8922,2.8902,2.8864,2.8857,2.8845,2.8837,2.8843,2.8813,2.881,2.8808,2.8797,2.8794,2.8838,2.8838,2.8838,2.8838,0,2.9119,2.9096,2.9081,2.9051,2.9034,2.9011,2.8992,2.8976,2.8968,2.8953,2.8921,2.8897,2.8866,2.8857,2.8848,2.8817,2.8818,2.8817,2.8821,2.8805,2.8795,2.8791,2.8838,2.8838,2.8838,2.8838,0,0,2.9101,2.9065,2.9059,2.9045,2.9016,2.8997,2.8973,2.8945,2.8931,2.8908,2.8886,2.885,2.8848,2.883,2.8819,2.8803,2.8782,2.8803,2.8802,2.8799,2.8745,2.8745,2.8741,2.8777,2.8776,2.8776,2.8747,0,2.9077,2.9035,2.9023,2.8987,2.8965,2.8955,2.8934,2.8913,2.8898,2.8876,2.8859,2.8834,2.8835,2.8824,2.8807,2.8788,2.877,2.879,2.8755,2.8754,2.8761,2.8736,2.8736,2.871,2.8743,2.8742,2.8742,0,2.9043,2.9022,2.8984,2.8958,2.8948,2.893,2.8903,2.8882,2.8857,2.8848,2.8828,2.8819,2.8791,2.8797,2.8758,2.8772,2.8757,2.8745,2.8744,2.8739,2.8746,2.8729,2.8702,2.8698,2.8736,2.8736,2.8737,0,2.9033,2.8994,2.8967,2.8955,2.8924,2.8911,2.8897,2.8873,2.8857,2.8833,2.8822,2.8794,2.8779,2.8757,2.8739,2.8745,2.8701,2.8706,2.8691,2.8691,2.8681,2.8681,2.8649,2.8673,2.8673,2.8673,2.8673,0,2.9006,2.8984,2.8962,2.8945,2.8918,2.8903,2.8877,2.8862,2.8841,2.882,2.8809,2.8789,2.8768,2.8744,2.873,2.8699,2.8692,2.8682,2.8679,2.8683,2.8684,2.8672,2.8672,2.8672,2.8672,2.8673,2.8673,0,2.899,2.8974,2.8944,2.8917,2.891,2.8892,2.8868,2.885,2.8836,2.8809,2.8802,2.8778,2.875,2.8731,2.8694,2.8684,2.865,2.8647,2.8659,2.8657,2.8643,2.8644,2.8601,2.8594,2.8623,2.8623,2.8623,0,2.8974,2.8956,2.8928,2.8914,2.8901,2.8878,2.8862,2.8846,2.883,2.88,2.8786,2.8757,2.8734,2.8688,2.8667,2.8638,2.8634,2.8621,2.8629,2.8634,2.8632,2.8633,2.8631,2.8619,2.8619,2.8619,2.8619,0,2.8946,2.894,2.8918,2.8894,2.8876,2.8855,2.8834,2.8823,2.8803,2.8785,2.8757,2.8739,2.8702,2.8673,2.8643,2.8626,2.8618,2.8616,2.8611,2.8614,2.8622,2.8616,2.8655,2.8617,2.8617,2.8617,2.8617,2.8617,2.8928,2.8912,2.8891,2.8866,2.885,2.8831,2.8813,2.8797,2.8774,2.8744,2.8736,2.8706,2.8681,2.864,2.8623,2.8598,2.8599,2.8592,2.859,2.8588,2.8587,2.8627,2.8593,2.8593,2.8593,2.8593,2.8593,0,2.89,2.8886,2.8864,2.8836,2.8817,2.8814,2.8791,2.8774,2.8749,2.8727,2.8705,2.8672,2.8644,2.8621,2.8592,2.8576,2.8572,2.8569,2.8569,2.8565,2.8589,2.8596,2.8573,2.8573,2.8573,2.8573,2.8573,2.8573,2.8882,2.8855,2.8846,2.8809,2.8794,2.8767,2.8754,2.8736,2.8718,2.8683,2.8661,2.8647,2.8623,2.8593,2.8566,2.856,2.8549,2.8547,2.8539,2.8562,2.8564,2.8566,2.8572,2.8545,2.8545,2.8518,2.8518,2.8517]}]]